Weather History for K0E0 - January, 2014

Change the Weather History Date:

Saturday, January 18, 2014

  Actual Average (KABQ) Record (KABQ)
Temperature  
Mean Temperature 33 °F 36 °F  
Max Temperature 52 °F 47 °F 65 °F (1906)
Min Temperature 14 °F 26 °F -1 °F (1915)
Degree Days  
Heating Degree Days 32 29  
Month to date heating degree days 526  
Since 1 July heating degree days 2283  
Cooling Degree Days 0 0  
Month to date cooling degree days 0  
Year to date cooling degree days 0  
Moisture  
Dew Point 9 °F    
Average Humidity 44    
Maximum Humidity 69    
Minimum Humidity 17    
Precipitation  
Precipitation 0.00 in 0.01 in 0.50 in (1979)
Month to date precipitation 0.22  
Year to date precipitation 0.22  
Snow  
Snow 0.00 in - - ()
Month to date snowfall  
Since 1 July snowfall  
Snow Depth -    
Sea Level Pressure  
Sea Level Pressure 30.25 in    
Wind  
Wind Speed 5 mph (NNE)    
Max Wind Speed 10 mph    
Max Gust Speed -    
Visibility 10 miles    
Events      
T = Trace of Precipitation, MM = Missing Value Source: NWS Daily Summary

Daily Weather History Graph

Daily Weather History Graph

Search for Another Location

Airport or City:

Trip Planner

Search our weather history database for the weather conditions in past years. The results will help you decide how hot, cold, wet, or windy it might be!

Date:

Astronomy

Jan. 18, 2014 Rise Set
Actual Time 7:10 AM MST 5:18 PM MST
Civil Twilight 6:43 AM MST 5:46 PM MST
Nautical Twilight 6:12 AM MST 6:17 PM MST
Astronomical Twilight 5:41 AM MST 6:47 PM MST
Moon 7:55 PM MST (1/18) 8:18 AM MST (1/18)
Length of Visible Light 11h 02m
Length of Day
10h 08m
Waning Gibbous, 94% of the Moon is Illuminated
Jan 18
Waning Gibbous
Jan 23
Last Quarter
Jan 30
New
Feb 6
First Quarter
Feb 14
Full

Hourly Weather History & Observations

Time (MST) Temp. Windchill Dew Point Humidity Pressure Visibility Wind Dir Wind Speed Gust Speed Precip Events Conditions
12:15 AM 23.4 °F 17.4 °F 9.7 °F 56% 30.18 in 10.0 mi ENE 4.6 mph - N/A   Clear
12:35 AM 22.5 °F 15.1 °F 9.3 °F 57% 30.17 in 10.0 mi NE 5.8 mph - N/A   Clear
12:55 AM 23.4 °F 18.9 °F 9.3 °F 55% 30.16 in 10.0 mi NE 3.5 mph - N/A   Clear
1:15 AM 21.6 °F 14.0 °F 9.7 °F 60% 30.17 in 10.0 mi East 5.8 mph - N/A   Clear
1:35 AM 27.1 °F 21.8 °F 10.4 °F 49% 30.17 in 10.0 mi NE 4.6 mph - N/A   Clear
1:55 AM 21.9 °F 15.7 °F 9.7 °F 59% 30.17 in 10.0 mi North 4.6 mph - N/A   Clear
2:15 AM 22.6 °F 16.5 °F 10.2 °F 59% 30.17 in 10.0 mi North 4.6 mph - N/A   Clear
2:35 AM 19.9 °F 10.1 °F 9.5 °F 64% 30.18 in 10.0 mi NE 8.1 mph - N/A   Clear
2:55 AM 19.6 °F 13.0 °F 9.5 °F 65% 30.17 in 10.0 mi North 4.6 mph - N/A   Clear
3:15 AM 22.1 °F 14.7 °F 9.9 °F 59% 30.17 in 10.0 mi North 5.8 mph - N/A   Clear
3:35 AM 22.6 °F 14.3 °F 10.9 °F 61% 30.17 in 10.0 mi NE 6.9 mph - N/A   Clear
3:55 AM 23.4 °F 17.4 °F 11.1 °F 60% 30.18 in 10.0 mi NNE 4.6 mph - N/A   Clear
4:15 AM 22.8 °F 16.7 °F 10.8 °F 60% 30.18 in 10.0 mi North 4.6 mph - N/A   Clear
4:35 AM 22.3 °F 13.9 °F 10.9 °F 62% 30.18 in 10.0 mi North 6.9 mph - N/A   Clear
4:55 AM 21.6 °F 16.8 °F 10.4 °F 62% 30.18 in 10.0 mi North 3.5 mph - N/A   Clear
5:15 AM 21.0 °F 13.4 °F 10.0 °F 63% 30.19 in 10.0 mi North 5.8 mph - N/A   Clear
5:35 AM 22.1 °F 14.7 °F 10.4 °F 61% 30.19 in 10.0 mi NNE 5.8 mph - N/A   Clear
5:55 AM 22.6 °F 13.4 °F 9.7 °F 58% 30.19 in 10.0 mi North 8.1 mph - N/A   Clear
6:15 AM 18.9 °F 12.1 °F 9.3 °F 66% 30.20 in 10.0 mi North 4.6 mph - N/A   Clear
6:35 AM 19.9 °F 11.1 °F 10.4 °F 67% 30.21 in 10.0 mi NE 6.9 mph - N/A   Clear
6:55 AM 19.6 °F 10.6 °F 9.7 °F 65% 30.22 in 10.0 mi North 6.9 mph - N/A   Clear
7:15 AM 18.3 °F 9.1 °F 9.7 °F 69% 30.23 in 10.0 mi NW 6.9 mph - N/A   Clear
7:35 AM 20.3 °F 11.5 °F 10.6 °F 66% 30.24 in 10.0 mi NNW 6.9 mph - N/A   Clear
7:55 AM 23.0 °F 14.7 °F 11.7 °F 62% 30.24 in 10.0 mi North 6.9 mph - N/A   Clear
8:15 AM 25.5 °F 18.7 °F 12.2 °F 57% 30.25 in 10.0 mi NNE 5.8 mph - N/A   Clear
8:35 AM 30.0 °F 23.2 °F 13.1 °F 49% 30.26 in 10.0 mi NNE 6.9 mph - N/A   Clear
8:55 AM 33.4 °F 25.4 °F 12.7 °F 42% 30.28 in 10.0 mi North 10.4 mph - N/A   Clear
9:15 AM 36.0 °F 29.6 °F 12.7 °F 38% 30.29 in 10.0 mi North 8.1 mph - N/A   Clear
9:35 AM 38.8 °F 32.6 °F 12.2 °F 34% 30.29 in 10.0 mi North 9.2 mph - N/A   Clear
9:55 AM 39.9 °F 35.8 °F 12.0 °F 32% 30.29 in 10.0 mi NNW 5.8 mph - N/A   Clear
10:15 AM 41.2 °F 37.3 °F 12.0 °F 30% 30.29 in 10.0 mi North 5.8 mph - N/A   Clear
10:35 AM 43.0 °F 39.5 °F 12.2 °F 29% 30.29 in 10.0 mi North 5.8 mph - N/A   Clear
10:55 AM 45.1 °F 42.0 °F 12.7 °F 27% 30.29 in 10.0 mi North 5.8 mph - N/A   Clear
11:15 AM 45.9 °F 42.3 °F 12.0 °F 25% 30.28 in 10.0 mi North 6.9 mph - N/A   Clear
11:35 AM 48.2 °F - 12.2 °F 24% 30.28 in 10.0 mi NNE 6.9 mph - N/A   Clear
11:55 AM 48.9 °F - 11.7 °F 22% 30.26 in 10.0 mi North 8.1 mph - N/A   Clear
12:15 PM 49.1 °F - 11.3 °F 22% 30.26 in 10.0 mi North 5.8 mph - N/A   Clear
12:35 PM 50.2 °F - 11.5 °F 21% 30.25 in 10.0 mi NNW 4.6 mph - N/A   Clear
12:55 PM 51.3 °F - 11.8 °F 21% 30.23 in 10.0 mi NW 3.5 mph - N/A   Clear
1:15 PM 50.4 °F - 11.3 °F 21% 30.23 in 10.0 mi Calm Calm - N/A   Clear
1:35 PM 51.8 °F - 12.0 °F 20% 30.23 in 10.0 mi NNE 4.6 mph - N/A   Clear
1:55 PM 51.6 °F - 11.8 °F 20% 30.23 in 10.0 mi Calm Calm - N/A   Clear
2:15 PM 52.3 °F - 11.8 °F 20% 30.23 in 10.0 mi Calm Calm - N/A   Clear
2:35 PM 52.5 °F - 11.3 °F 19% 30.24 in 10.0 mi Calm Calm - N/A   Clear
2:55 PM 52.3 °F - 10.9 °F 19% 30.25 in 10.0 mi Calm Calm - N/A   Clear
3:15 PM 52.9 °F - 10.0 °F 18% 30.25 in 10.0 mi NE 3.5 mph - N/A   Clear
3:35 PM 52.7 °F - 9.1 °F 17% 30.25 in 10.0 mi NE 6.9 mph - N/A   Clear
3:55 PM 52.9 °F - 9.1 °F 17% 30.26 in 10.0 mi ENE 3.5 mph - N/A   Clear
4:15 PM 52.5 °F - 8.8 °F 17% 30.26 in 10.0 mi NE 5.8 mph - N/A   Clear
4:35 PM 50.9 °F - 8.4 °F 18% 30.26 in 10.0 mi North 4.6 mph - N/A   Clear
4:55 PM 49.1 °F - 8.8 °F 20% 30.26 in 10.0 mi Calm Calm - N/A   Clear
5:15 PM 46.2 °F - 8.4 °F 21% 30.26 in 10.0 mi Calm Calm - N/A   Clear
5:35 PM 41.7 °F 38.8 °F 7.5 °F 25% 30.27 in 10.0 mi South 4.6 mph - N/A   Clear
5:55 PM 37.0 °F 33.3 °F 7.2 °F 29% 30.28 in 10.0 mi South 4.6 mph - N/A   Clear
6:15 PM 33.6 °F 26.8 °F 6.6 °F 32% 30.29 in 10.0 mi South 8.1 mph - N/A   Clear
6:35 PM 31.8 °F 26.2 °F 6.1 °F 34% 30.29 in 10.0 mi South 5.8 mph - N/A   Clear
6:55 PM 32.0 °F 27.5 °F 6.8 °F 35% 30.30 in 10.0 mi SSW 4.6 mph - N/A   Clear
7:15 PM 29.5 °F - 6.8 °F 38% 30.31 in 10.0 mi Calm Calm - N/A   Clear
7:35 PM 25.5 °F 21.3 °F 5.5 °F 43% 30.31 in 10.0 mi NE 3.5 mph - N/A   Clear
7:55 PM 22.3 °F - 5.2 °F 48% 30.31 in 10.0 mi Calm Calm - N/A   Clear
8:15 PM 21.4 °F 16.6 °F 4.8 °F 49% 30.32 in 10.0 mi North 3.5 mph - N/A   Clear
8:35 PM 20.8 °F 13.2 °F 5.2 °F 51% 30.32 in 10.0 mi North 5.8 mph - N/A   Clear
8:55 PM 21.0 °F 12.4 °F 6.1 °F 53% 30.33 in 10.0 mi NE 6.9 mph - N/A   Clear
9:15 PM 23.0 °F - 6.8 °F 50% 30.34 in 10.0 mi Calm Calm - N/A   Clear
9:35 PM 19.4 °F 14.3 °F 5.7 °F 55% 30.34 in 10.0 mi North 3.5 mph - N/A   Clear
9:55 PM 18.5 °F 11.7 °F 5.5 °F 57% 30.34 in 10.0 mi North 4.6 mph - N/A   Clear
10:15 PM 16.9 °F 9.8 °F 4.8 °F 59% 30.34 in 10.0 mi NNW 4.6 mph - N/A   Clear
10:35 PM 17.6 °F 12.3 °F 5.7 °F 60% 30.35 in 10.0 mi West 3.5 mph - N/A   Clear
10:55 PM 16.0 °F 10.4 °F 4.8 °F 61% 30.35 in 10.0 mi North 3.5 mph - N/A   Clear
11:15 PM 14.4 °F 5.5 °F 4.6 °F 65% 30.35 in 10.0 mi NE 5.8 mph - N/A   Clear
11:35 PM 14.5 °F 5.7 °F 5.2 °F 66% 30.34 in 10.0 mi ENE 5.8 mph - N/A   Clear
11:55 PM 14.5 °F 7.1 °F 5.4 °F 67% 30.34 in 10.0 mi NE 4.6 mph - N/A   Clear